K5KVN-2 Weather Reports


time (UTC)temp
C
wind
direction
speed
KPH
gust
KPH
rain 1hr
cm
rain 24hr
cm
rain mn
cm
humidity
%
barometer
mb
20260505055558 18 121 4.8 9.7 0.00 0.00 0.00 73 1005.8
20260505054559 18 153 1.6 6.4 0.00 0.00 0.00 71 1006.6
20260505053557 18 124 3.2 8.0 0.00 0.00 0.00 70 1006.2
20260505052600 18 190 8.0 14.5 0.00 0.00 0.00 70 1006.4
20260505051552 18 139 8.0 19.3 0.00 0.00 0.00 70 1005.9
20260505050554 18 96 6.4 12.9 0.00 0.00 0.00 71 1006.0
20260505041552 18 139 3.2 4.8 0.00 0.00 0.00 72 1006.8
20260505040549 18 152 3.2 8.0 0.00 0.00 0.00 72 1006.9
20260505035549 18 167 6.4 9.7 0.00 0.00 0.00 71 1006.9
20260505034550 19 0 6.4 12.9 0.00 0.00 0.00 71 1007.2
20260505034028 19 163 6.4 12.9 0.00 0.00 0.00 70 1007.2
20260505032550 19 170 8.0 14.5 0.00 0.00 0.00 71 1007.3
20260505031548 19 176 8.0 14.5 0.00 0.00 0.00 70 1007.2
20260505030549 19 160 8.0 12.9 0.00 0.00 0.00 70 1007.3
20260505025543 19 174 8.0 11.3 0.00 0.00 0.00 70 1007.6
20260505024542 19 173 8.0 11.3 0.00 0.00 0.00 70 1007.3
20260505023541 20 183 9.7 17.7 0.00 0.00 0.00 69 1007.3
20260505022542 20 166 9.7 16.1 0.00 0.00 0.00 69 1007.0
20260505021543 19 169 8.0 9.7 0.00 0.00 0.00 69 1006.8
20260505020543 20 174 8.0 14.5 0.00 0.00 0.00 69 1006.7
20260505015543 20 178 8.0 12.9 0.00 0.00 0.00 68 1006.6
20260505015019 20 202 6.4 11.3 0.00 0.00 0.00 67 1006.6
20260505013543 20 173 6.4 9.7 0.00 0.00 0.00 67 1006.4
20260505012536 20 188 8.0 11.3 0.00 0.00 0.00 66 1006.4
20260505011536 21 182 9.7 14.5 0.00 0.00 0.00 65 1006.2
20260505010535 21 180 9.7 17.7 0.00 0.00 0.00 64 1006.1
20260505005535 21 179 9.7 16.1 0.00 0.00 0.00 62 1006.0
20260505004539 21 157 11.3 19.3 0.00 0.00 0.00 62 1006.0
20260505003531 21 160 11.3 24.1 0.00 0.00 0.00 62 1006.0
20260505002531 22 174 12.9 22.5 0.00 0.00 0.00 61 1006.0
20260505001530 22 167 12.9 19.3 0.00 0.00 0.00 60 1005.9
20260505000530 22 163 14.5 30.6 0.00 0.00 0.00 61 1006.0
20260504235529 22 185 14.5 25.7 0.00 0.00 0.00 59 1006.0
20260504234532 22 165 16.1 30.6 0.00 0.00 0.00 59 1006.0
20260504233527 22 180 20.9 33.8 0.00 0.00 0.00 57 1006.1
20260504232527 23 178 19.3 49.9 0.00 0.00 0.00 56 1006.1
20260504231525 23 169 20.9 37.0 0.00 0.00 0.00 56 1006.2
20260504230527 23 155 20.9 41.8 0.00 0.00 0.00 55 1006.3
20260504225526 23 178 19.3 35.4 0.00 0.00 0.00 55 1006.3
20260504225010 23 160 19.3 37.0 0.00 0.00 0.00 54 1006.1
20260504223525 24 182 20.9 40.2 0.00 0.00 0.00 54 1006.2
20260504222527 24 169 19.3 35.4 0.00 0.00 0.00 53 1006.0
20260504221523 24 165 17.7 37.0 0.00 0.00 0.00 55 1005.9
20260504220528 24 191 20.9 40.2 0.00 0.00 0.00 54 1006.0
20260504220009 24 176 24.1 41.8 0.00 0.00 0.00 51 1006.2
20260504214519 24 144 22.5 41.8 0.00 0.00 0.00 54 1006.2
20260504213519 25 173 22.5 38.6 0.00 0.00 0.00 56 1006.3
20260504212517 25 182 20.9 35.4 0.00 0.00 0.00 53 1006.4
20260504211516 24 154 25.7 41.8 0.00 0.00 0.00 53 1006.5
20260504210516 24 184 24.1 46.7 0.00 0.00 0.00 53 1006.7
20260504205515 24 184 25.7 48.3 0.00 0.00 0.00 53 1006.9
20260504204959 24 209 25.7 46.7 0.00 0.00 0.00 51 1007.2
20260504203519 25 203 22.5 43.5 0.00 0.00 0.00 53 1007.4
20260504202955 25 201 24.1 45.1 0.00 0.00 0.00 51 1007.4
20260504201513 25 193 20.9 43.5 0.00 0.00 0.00 52 1007.8
20260504200510 25 159 24.1 45.1 0.00 0.00 0.00 52 1007.8
20260504195509 25 182 24.1 38.6 0.00 0.00 0.00 52 1007.9
20260504195004 24 168 22.5 41.8 0.00 0.00 0.00 51 1008.0
20260504193509 25 197 20.9 35.4 0.00 0.00 0.00 51 1008.0
20260504192512 24 163 27.4 46.7 0.00 0.00 0.00 56 1008.2
20260504191509 24 163 22.5 45.1 0.00 0.00 0.00 52 1008.2
20260504190512 24 175 22.5 43.5 0.00 0.00 0.00 53 1008.4
20260504185507 24 200 24.1 45.1 0.00 0.00 0.00 53 1008.3
20260504184507 24 166 25.7 46.7 0.00 0.00 0.00 53 1008.4
20260504183506 23 167 27.4 51.5 0.00 0.00 0.00 53 1008.6
20260504182508 24 176 25.7 43.5 0.00 0.00 0.00 54 1008.8
20260504181517 24 185 24.1 45.1 0.00 0.00 0.00 57 1008.8
20260504180509 24 178 20.9 38.6 0.00 0.00 0.00 55 1009.0
20260504175507 23 228 24.1 46.7 0.00 0.00 0.00 56 1009.0
20260504174505 23 184 24.1 38.6 0.00 0.00 0.00 55 1009.2
20260504173503 23 182 25.7 41.8 0.00 0.00 0.00 57 1009.5
20260504172500 23 163 22.5 37.0 0.00 0.00 0.00 57 1009.6
20260504171504 23 185 24.1 45.1 0.00 0.00 0.00 57 1009.4
20260504170503 22 169 27.4 40.2 0.00 0.00 0.00 56 1009.5
20260504150501 21 194 19.3 41.8 0.00 0.00 0.00 55 1010.4
20260504140502 19 193 16.1 33.8 0.00 0.00 0.00 59 1010.8
20260504130501 17 159 9.7 17.7 0.00 0.00 0.00 65 1011.2
20260504110450 15 200 12.9 22.5 0.00 0.00 0.00 68 1010.8
20260504100448 15 198 9.7 19.3 0.00 0.00 0.00 65 1011.1
20260504081439 17 211 11.3 20.9 0.00 0.00 0.00 59 1011.6
20260504080439 17 178 11.3 20.9 0.00 0.00 0.00 59 1011.7